Location: Caltech
(34.1382°N, 118.1253°W)
Time: 02:08:47
(UTC-07:00)

Cosmos 1626 - Visible Passes

Search period start: 31 October 2014 00:00
Search period end: 09 November 2014 23:00
Orbit: 515 x 519 km, 82.5° (Epoch: 29 October)

Date Brightness Start Highest point End Pass type
(mag) Time Alt. Az. Time Alt. Az. Time Alt. Az.
31 Oct 5.7 05:54:56 10° ESE 05:56:28 12° E 05:58:00 10° ENE visible
31 Oct 5.4 19:03:37 10° NW 19:06:13 18° W 19:08:49 10° SW visible
01 Nov 5.1 18:48:42 10° NW 18:51:39 22° W 18:54:36 10° SW visible
02 Nov 4.7 17:33:51 10° NNW 17:37:04 26° W 17:40:17 10° SSW visible
03 Nov 2.2 05:44:08 10° SSW 05:47:54 61° W 05:51:42 10° N visible
03 Nov 4.3 17:19:02 10° NNW 17:22:28 32° W 17:25:53 10° SSW visible
04 Nov 2.1 05:29:27 10° S 05:33:15 78° W 05:37:05 10° N visible
05 Nov 2.2 05:14:47 10° S 05:18:36 84° E 05:22:26 10° N visible
06 Nov 2.6 05:00:09 10° S 05:03:56 67° E 05:07:44 10° NNE visible
07 Nov 3.0 04:45:33 10° S 04:49:15 52° E 04:52:59 10° NNE visible
08 Nov 3.5 04:30:58 10° SSE 04:34:35 42° E 04:38:12 10° NNE visible
09 Nov 3.9 04:16:26 10° SSE 04:19:53 33° E 04:23:21 10° NNE visible
